EW8935 Weather Reports


Display with metric or nautical units.
time (UTC)temp
F
wind
direction
speed
MPH
gust
MPH
rain 1hr
in
rain 24hr
in
rain mn
in
humidity
%
barometer
mb
20260510132337 62 0.0 0.0 0.00 0.00 0.00 74 1018.3
20260510131316 62 0.0 0.0 0.00 0.00 0.00 74 1018.2
20260510130317 62 0.0 0.0 0.00 0.00 0.00 74 1018.0
20260510125316 61 0.0 0.0 0.00 0.00 0.00 76 1017.8
20260510124317 61 0.0 0.0 0.00 0.00 0.00 79 1017.7
20260510123317 60 0.0 0.0 0.00 0.00 0.00 81 1017.5
20260510122317 60 0.0 0.0 0.00 0.00 0.00 80 1017.4
20260510121316 59 0.0 0.0 0.00 0.00 0.00 82 1017.1
20260510120317 59 0.0 0.0 0.00 0.00 0.00 83 1017.0
20260510115316 58 0.0 0.0 0.00 0.00 0.00 86 1016.9
20260510114316 57 0.0 0.0 0.00 0.00 0.00 87 1016.8
20260510113336 57 0.0 0.0 0.00 0.00 0.00 86 1016.8
20260510112316 57 0.0 0.0 0.00 0.00 0.00 87 1016.5
20260510111316 56 0.0 0.0 0.00 0.00 0.00 88 1016.1
20260510110318 56 0.0 0.0 0.00 0.00 0.00 88 1016.0
20260510105339 56 0.0 0.0 0.00 0.00 0.00 89 1016.0
20260510104318 56 0.0 0.0 0.00 0.00 0.00 89 1016.1
20260510103318 56 0.0 0.0 0.00 0.00 0.00 89 1016.4
20260510102318 56 0.0 0.0 0.00 0.00 0.00 89 1016.2
20260510101318 56 0.0 0.0 0.00 0.00 0.00 89 1015.9
20260510100318 56 0.0 0.0 0.00 0.00 0.00 89 1015.5
20260510095318 56 0.0 0.0 0.00 0.00 0.00 89 1015.4
20260510094318 56 0.0 0.0 0.00 0.00 0.00 88 1015.3
20260510093318 56 0.0 0.0 0.00 0.00 0.00 87 1015.1
20260510092318 57 0.0 0.0 0.00 0.00 0.00 87 1015.1
20260510091319 57 0.0 0.0 0.00 0.00 0.00 87 1014.8
20260510090318 57 0.0 0.0 0.00 0.00 0.00 87 1014.9
20260510085318 57 0.0 0.0 0.00 0.00 0.00 86 1014.8
20260510084318 57 0.0 0.0 0.00 0.00 0.00 86 1014.8
20260510083318 58 0.0 0.0 0.00 0.00 0.00 85 1014.7
20260510082318 58 0.0 0.0 0.00 0.00 0.00 84 1014.7
20260510081339 58 0.0 0.0 0.00 0.00 0.00 84 1014.7
20260510080318 58 0.0 0.0 0.00 0.00 0.00 85 1014.8
20260510075318 58 0.0 0.0 0.00 0.00 0.00 85 1015.0
20260510074318 58 0.0 0.0 0.00 0.00 0.00 85 1014.8
20260510073318 58 0.0 0.0 0.00 0.00 0.00 84 1014.7
20260510072318 58 0.0 0.0 0.00 0.00 0.00 83 1014.6
20260510071318 58 0.0 0.0 0.00 0.00 0.00 83 1014.5
20260510070338 58 0.0 0.0 0.00 0.00 0.00 81 1014.6
20260510065318 59 0.0 0.0 0.00 0.00 0.00 79 1014.6
20260510064318 60 0.0 0.0 0.00 0.00 0.00 79 1014.5
20260510063318 60 0.0 0.0 0.00 0.00 0.00 76 1014.5
20260510062318 61 0.0 0.0 0.00 0.00 0.00 74 1014.7
20260510061318 61 0.0 0.0 0.00 0.00 0.00 75 1014.8
20260510060318 61 0.0 0.0 0.00 0.00 0.00 76 1015.0
20260510055318 59 0.0 0.0 0.00 0.00 0.00 80 1014.7
20260510054318 59 0.0 0.0 0.00 0.00 0.00 83 1014.6
20260510053318 59 0.0 0.0 0.00 0.00 0.00 82 1014.3
20260510052318 60 0.0 0.0 0.00 0.00 0.00 82 1014.2
20260510051318 60 0.0 0.0 0.00 0.00 0.00 81 1014.2
20260510050318 60 0.0 0.0 0.00 0.00 0.00 79 1014.0
20260510045318 61 0.0 0.0 0.00 0.00 0.00 78 1013.9
20260510044318 61 0.0 0.0 0.00 0.00 0.00 78 1013.8
20260510043318 61 0.0 0.0 0.00 0.00 0.00 78 1014.0
20260510042318 60 0.0 0.0 0.00 0.00 0.00 79 1013.9
20260510041318 60 0.0 0.0 0.00 0.00 0.00 80 1013.7
20260510040318 60 0.0 0.0 0.00 0.00 0.00 79 1013.4
20260510035318 60 0.0 0.0 0.00 0.00 0.00 78 1013.2
20260510034317 61 0.0 0.0 0.00 0.00 0.00 77 1013.2
20260510033318 61 0.0 0.0 0.00 0.00 0.00 76 1013.2
20260510032318 62 0.0 0.0 0.00 0.00 0.00 75 1013.1
20260510031318 62 0.0 0.0 0.00 0.00 0.00 73 1012.9
20260510030318 62 0.0 0.0 0.00 0.00 0.00 73 1012.9
20260510025318 63 0.0 0.0 0.00 0.00 0.00 73 1012.7
20260510024338 63 0.0 0.0 0.00 0.00 0.00 70 1012.3
20260510023318 64 0.0 0.0 0.00 0.00 0.00 68 1012.1
20260510022318 65 0.0 0.0 0.00 0.00 0.00 66 1011.8
20260510021318 65 0.0 0.0 0.00 0.00 0.00 66 1011.7
20260510020318 66 0.0 0.0 0.00 0.00 0.00 62 1011.5
20260510015318 68 0.0 0.0 0.00 0.00 0.00 61 1011.4
20260510014318 69 0.0 0.0 0.00 0.00 0.00 56 1011.1
20260510013358 70 0.0 0.0 0.00 0.00 0.00 50 1011.0
20260510012317 72 0.0 0.0 0.00 0.00 0.00 49 1011.0
20260510011337 72 0.0 0.0 0.00 0.00 0.00 49 1010.8
20260510010318 73 0.0 0.0 0.00 0.00 0.00 47 1010.8
20260510005317 74 0.0 0.0 0.00 0.00 0.00 47 1010.7
20260510004318 76 0.0 0.0 0.00 0.00 0.00 43 1010.4
20260510003358 77 0.0 0.0 0.00 0.00 0.00 39 1010.4
20260510002318 77 0.0 0.0 0.00 0.00 0.00 41 1010.5
20260510001317 78 0.0 0.0 0.00 0.00 0.00 41 1010.5
20260510000318 79 0.0 0.0 0.00 0.00 0.00 36 1010.6
20260509235317 78 0.0 0.0 0.00 0.00 0.00 40 1010.5
20260509234337 80 0.0 0.0 0.00 0.00 0.00 35 1010.6
20260509233337 81 0.0 0.0 0.00 0.00 0.00 34 1010.6
20260509232317 81 0.0 0.0 0.00 0.00 0.00 32 1010.7
20260509231317 82 0.0 0.0 0.00 0.00 0.00 33 1010.7
20260509230317 81 0.0 0.0 0.00 0.00 0.00 32 1010.7
20260509225338 81 0.0 0.0 0.00 0.00 0.00 33 1010.6
20260509224317 81 0.0 0.0 0.00 0.00 0.00 31 1010.8
20260509223317 83 0.0 0.0 0.00 0.00 0.00 29 1010.9
20260509222317 83 0.0 0.0 0.00 0.00 0.00 31 1010.9
20260509221317 84 0.0 0.0 0.00 0.00 0.00 31 1011.0
20260509220338 82 0.0 0.0 0.00 0.00 0.00 37 1011.0
20260509215317 83 0.0 0.0 0.00 0.00 0.00 31 1011.0
20260509214317 84 0.0 0.0 0.00 0.00 0.00 30 1010.8
20260509213317 83 0.0 0.0 0.00 0.00 0.00 29 1010.8
20260509212337 83 0.0 0.0 0.00 0.00 0.00 31 1010.8
20260509211317 84 0.0 0.0 0.00 0.00 0.00 31 1011.0
20260509210317 83 0.0 0.0 0.00 0.00 0.00 35 1011.0
20260509205317 83 0.0 0.0 0.00 0.00 0.00 32 1011.2
20260509204317 82 0.0 0.0 0.00 0.00 0.00 31 1011.1
20260509203317 84 0.0 0.0 0.00 0.00 0.00 31 1011.2
20260509202317 84 0.0 0.0 0.00 0.00 0.00 30 1011.3
20260509201337 84 0.0 0.0 0.00 0.00 0.00 35 1011.5
20260509200337 83 0.0 0.0 0.00 0.00 0.00 32 1011.6
20260509195337 85 0.0 0.0 0.00 0.00 0.00 33 1011.8
20260509194317 84 0.0 0.0 0.00 0.00 0.00 37 1011.8
20260509193317 82 0.0 0.0 0.00 0.00 0.00 35 1011.8
20260509192317 83 0.0 0.0 0.00 0.00 0.00 33 1012.0
20260509191317 84 0.0 0.0 0.00 0.00 0.00 29 1011.9
20260509190317 83 0.0 0.0 0.00 0.00 0.00 32 1012.0
20260509185317 82 0.0 0.0 0.00 0.00 0.00 34 1012.0
20260509184317 83 0.0 0.0 0.00 0.00 0.00 35 1012.2
20260509183337 83 0.0 0.0 0.00 0.00 0.00 34 1012.1
20260509182317 82 0.0 0.0 0.00 0.00 0.00 35 1012.1
20260509181357 82 0.0 0.0 0.00 0.00 0.00 35 1012.1
20260509180317 81 0.0 0.0 0.00 0.00 0.00 32 1012.0
20260509175317 82 0.0 0.0 0.00 0.00 0.00 34 1012.2
20260509174337 81 0.0 0.0 0.00 0.00 0.00 34 1012.2
20260509173317 81 0.0 0.0 0.00 0.00 0.00 44 1012.4
20260509172317 80 0.0 0.0 0.00 0.00 0.00 37 1012.4
20260509171317 80 0.0 0.0 0.00 0.00 0.00 38 1012.6
20260509170317 80 0.0 0.0 0.00 0.00 0.00 40 1012.7
20260509165317 80 0.0 0.0 0.00 0.00 0.00 45 1012.8
20260509164317 79 0.0 0.0 0.00 0.00 0.00 41 1012.8
20260509163317 79 0.0 0.0 0.00 0.00 0.00 46 1012.7
20260509162316 78 0.0 0.0 0.00 0.00 0.00 46 1012.6
20260509161317 78 0.0 0.0 0.00 0.00 0.00 46 1012.7
20260509160337 77 0.0 0.0 0.00 0.00 0.00 47 1012.6
20260509155317 76 0.0 0.0 0.00 0.00 0.00 53 1012.5
20260509154317 74 0.0 0.0 0.00 0.00 0.00 53 1012.5
20260509153317 73 0.0 0.0 0.00 0.00 0.00 59 1012.5
20260509152316 72 0.0 0.0 0.00 0.00 0.00 62 1012.4
20260509151316 71 0.0 0.0 0.00 0.00 0.00 66 1012.5
20260509150316 70 0.0 0.0 0.00 0.00 0.00 68 1012.6
20260509145316 68 0.0 0.0 0.00 0.00 0.00 71 1012.4
20260509144316 67 0.0 0.0 0.00 0.00 0.00 75 1012.3
20260509143316 66 0.0 0.0 0.00 0.00 0.00 79 1012.3
20260509142317 65 0.0 0.0 0.00 0.00 0.00 78 1012.2
20260509141316 64 0.0 0.0 0.00 0.00 0.00 84 1012.2
20260509140318 63 0.0 0.0 0.00 0.00 0.00 88 1012.0
20260509135318 62 0.0 0.0 0.00 0.00 0.00 91 1011.9
20260509134318 60 0.0 0.0 0.00 0.00 0.00 93 1011.9
20260509133318 59 0.0 0.0 0.00 0.00 0.00 95 1011.9